FW2930 Weather Reports


time (UTC)temp
F
wind
direction
speed
knots
gust
knots
rain 1hr
in
rain 24hr
in
rain mn
in
humidity
%
barometer
mb
20260506222001 0 185 9.6 9.6 0.00 0.00 0.00 -999.0
20260506221900 0 138 9.6 9.6 0.00 0.00 0.00 -999.0
20260506221801 0 165 7.0 7.0 0.00 0.00 0.00 -999.0
20260506221701 0 158 6.1 6.1 0.00 0.00 0.00 -999.0
20260506221300 0 152 10.4 10.4 0.00 0.00 0.00 -999.0
20260506221200 0 144 5.2 5.2 0.00 0.00 0.00 -999.0
20260506221100 0 166 7.8 7.8 0.00 0.00 0.00 -999.0
20260506221001 0 148 11.3 11.3 0.00 0.00 0.00 -999.0
20260506220800 0 147 9.6 9.6 0.00 0.00 0.00 -999.0
20260506220701 0 150 9.6 9.6 0.00 0.00 0.00 -999.0
20260506220601 0 130 12.2 12.2 0.00 0.00 0.00 -999.0
20260506220500 0 165 10.4 10.4 0.00 0.00 0.00 -999.0
20260506220401 0 184 8.7 8.7 0.00 0.00 0.00 -999.0
20260506220300 0 157 8.7 8.7 0.00 0.00 0.00 -999.0
20260506220201 0 143 6.1 6.1 0.00 0.00 0.00 -999.0
20260506220000 0 175 7.8 7.8 0.00 0.00 0.00 -999.0
20260506215901 0 139 7.8 7.8 0.00 0.00 0.00 -999.0
20260506215800 0 145 6.1 6.1 0.00 0.00 0.00 -999.0
20260506215700 0 142 7.8 7.8 0.00 0.00 0.00 -999.0
20260506215600 0 150 9.6 9.6 0.00 0.00 0.00 -999.0
20260506215400 0 152 8.7 8.7 0.00 0.00 0.00 -999.0
20260506215301 0 152 9.6 9.6 0.00 0.00 0.00 -999.0
20260506215201 0 164 10.4 10.4 0.00 0.00 0.00 -999.0
20260506215101 0 146 10.4 10.4 0.00 0.00 0.00 -999.0
20260506215000 0 177 7.8 7.8 0.00 0.00 0.00 -999.0
20260506214901 0 148 6.1 6.1 0.00 0.00 0.00 -999.0
20260506214800 0 153 7.0 7.0 0.00 0.00 0.00 -999.0
20260506214700 0 167 7.8 7.8 0.00 0.00 0.00 -999.0
20260506214600 0 146 8.7 8.7 0.00 0.00 0.00 -999.0
20260506214500 0 148 3.5 3.5 0.00 0.00 0.00 -999.0
20260506214401 0 134 7.0 7.0 0.00 0.00 0.00 -999.0
20260506214300 0 152 10.4 10.4 0.00 0.00 0.00 -999.0
20260506214200 0 153 8.7 8.7 0.00 0.00 0.00 -999.0
20260506214100 0 157 7.0 7.0 0.00 0.00 0.00 -999.0
20260506213900 0 147 9.6 9.6 0.00 0.00 0.00 -999.0
20260506213801 0 175 9.6 9.6 0.00 0.00 0.00 -999.0
20260506213700 0 162 11.3 11.3 0.00 0.00 0.00 -999.0
20260506213500 0 169 7.8 7.8 0.00 0.00 0.00 -999.0
20260506213400 0 148 9.6 9.6 0.00 0.00 0.00 -999.0
20260506213300 0 139 7.0 7.0 0.00 0.00 0.00 -999.0
20260506213101 0 134 7.0 7.0 0.00 0.00 0.00 -999.0
20260506213000 0 154 7.8 7.8 0.00 0.00 0.00 -999.0
20260506212901 0 142 8.7 8.7 0.00 0.00 0.00 -999.0
20260506212801 0 154 11.3 11.3 0.00 0.00 0.00 -999.0
20260506212701 0 144 8.7 8.7 0.00 0.00 0.00 -999.0
20260506212601 0 129 7.0 7.0 0.00 0.00 0.00 -999.0
20260506212501 0 158 7.0 7.0 0.00 0.00 0.00 -999.0
20260506212401 0 148 7.8 7.8 0.00 0.00 0.00 -999.0
20260506212301 0 148 10.4 10.4 0.00 0.00 0.00 -999.0
20260506212200 0 126 7.8 7.8 0.00 0.00 0.00 -999.0
20260506212100 0 157 7.8 7.8 0.00 0.00 0.00 -999.0
20260506212000 0 155 7.0 7.0 0.00 0.00 0.00 -999.0
20260506211901 0 149 7.8 7.8 0.00 0.00 0.00 -999.0
20260506211800 0 150 9.6 9.6 0.00 0.00 0.00 -999.0
20260506211701 0 158 10.4 10.4 0.00 0.00 0.00 -999.0
20260506211601 0 146 10.4 10.4 0.00 0.00 0.00 -999.0
20260506211501 0 159 9.6 9.6 0.00 0.00 0.00 -999.0
20260506211401 0 143 10.4 10.4 0.00 0.00 0.00 -999.0
20260506211300 0 148 11.3 11.3 0.00 0.00 0.00 -999.0
20260506211201 0 155 11.3 11.3 0.00 0.00 0.00 -999.0
20260506211100 0 146 12.2 12.2 0.00 0.00 0.00 -999.0
20260506211001 0 164 10.4 10.4 0.00 0.00 0.00 -999.0
20260506210900 0 146 10.4 10.4 0.00 0.00 0.00 -999.0
20260506210801 0 148 10.4 10.4 0.00 0.00 0.00 -999.0
20260506210700 0 153 8.7 8.7 0.00 0.00 0.00 -999.0
20260506210401 0 139 9.6 9.6 0.00 0.00 0.00 -999.0
20260506210301 0 145 10.4 10.4 0.00 0.00 0.00 -999.0
20260506210200 0 143 10.4 10.4 0.00 0.00 0.00 -999.0
20260506210100 0 147 11.3 11.3 0.00 0.00 0.00 -999.0
20260506210001 0 160 8.7 8.7 0.00 0.00 0.00 -999.0
20260506205901 0 153 9.6 9.6 0.00 0.00 0.00 -999.0
20260506205601 0 137 10.4 10.4 0.00 0.00 0.00 -999.0
20260506205500 0 152 7.8 7.8 0.00 0.00 0.00 -999.0
20260506205401 0 150 9.6 9.6 0.00 0.00 0.00 -999.0
20260506205300 0 155 8.7 8.7 0.00 0.00 0.00 -999.0
20260506205100 0 139 12.2 12.2 0.00 0.00 0.00 -999.0
20260506205001 0 149 11.3 11.3 0.00 0.00 0.00 -999.0
20260506204800 0 156 10.4 10.4 0.00 0.00 0.00 -999.0
20260506204700 0 162 8.7 8.7 0.00 0.00 0.00 -999.0
20260506204600 0 147 7.8 7.8 0.00 0.00 0.00 -999.0
20260506204301 0 143 9.6 9.6 0.00 0.00 0.00 -999.0
20260506204201 0 123 10.4 10.4 0.00 0.00 0.00 -999.0
20260506204101 0 168 7.8 7.8 0.00 0.00 0.00 -999.0
20260506203901 0 147 7.8 7.8 0.00 0.00 0.00 -999.0
20260506203801 0 134 12.2 12.2 0.00 0.00 0.00 -999.0
20260506203701 0 143 12.2 12.2 0.00 0.00 0.00 -999.0
20260506203601 0 139 11.3 11.3 0.00 0.00 0.00 -999.0
20260506203501 0 151 12.2 12.2 0.00 0.00 0.00 -999.0
20260506203300 0 129 9.6 9.6 0.00 0.00 0.00 -999.0
20260506203200 0 137 11.3 11.3 0.00 0.00 0.00 -999.0
20260506203101 0 141 8.7 8.7 0.00 0.00 0.00 -999.0
20260506202901 0 140 8.7 8.7 0.00 0.00 0.00 -999.0
20260506202801 0 158 7.8 7.8 0.00 0.00 0.00 -999.0
20260506202700 0 154 8.7 8.7 0.00 0.00 0.00 -999.0
20260506202601 0 134 8.7 8.7 0.00 0.00 0.00 -999.0
20260506202501 0 153 10.4 10.4 0.00 0.00 0.00 -999.0
20260506202300 0 149 9.6 9.6 0.00 0.00 0.00 -999.0
20260506202200 0 152 9.6 9.6 0.00 0.00 0.00 -999.0
20260506202100 0 143 10.4 10.4 0.00 0.00 0.00 -999.0
20260506202000 0 150 8.7 8.7 0.00 0.00 0.00 -999.0
20260506201801 0 143 12.2 12.2 0.00 0.00 0.00 -999.0
20260506201701 0 147 11.3 11.3 0.00 0.00 0.00 -999.0
20260506201600 0 150 11.3 11.3 0.00 0.00 0.00 -999.0
20260506201501 0 168 8.7 8.7 0.00 0.00 0.00 -999.0
20260506201401 0 143 11.3 11.3 0.00 0.00 0.00 -999.0
20260506201301 0 124 10.4 10.4 0.00 0.00 0.00 -999.0
20260506201101 0 161 11.3 11.3 0.00 0.00 0.00 -999.0
20260506200900 0 143 11.3 11.3 0.00 0.00 0.00 -999.0
20260506200801 0 158 8.7 8.7 0.00 0.00 0.00 -999.0
20260506200700 0 144 9.6 9.6 0.00 0.00 0.00 -999.0
20260506200600 0 140 7.8 7.8 0.00 0.00 0.00 -999.0
20260506200501 0 143 10.4 10.4 0.00 0.00 0.00 -999.0
20260506200401 0 143 7.8 7.8 0.00 0.00 0.00 -999.0
20260506200300 0 131 6.1 6.1 0.00 0.00 0.00 -999.0
20260506200200 0 131 8.7 8.7 0.00 0.00 0.00 -999.0
20260506200100 0 139 7.8 7.8 0.00 0.00 0.00 -999.0
20260506200000 0 122 9.6 9.6 0.00 0.00 0.00 -999.0
20260506195900 0 142 8.7 8.7 0.00 0.00 0.00 -999.0
20260506195801 0 151 8.7 8.7 0.00 0.00 0.00 -999.0
20260506195701 0 133 11.3 11.3 0.00 0.00 0.00 -999.0
20260506195600 0 153 7.8 7.8 0.00 0.00 0.00 -999.0
20260506195501 0 146 11.3 11.3 0.00 0.00 0.00 -999.0
20260506195400 0 158 9.6 9.6 0.00 0.00 0.00 -999.0
20260506195301 0 145 8.7 8.7 0.00 0.00 0.00 -999.0
20260506195201 0 164 7.8 7.8 0.00 0.00 0.00 -999.0
20260506195101 0 131 7.8 7.8 0.00 0.00 0.00 -999.0
20260506195001 0 146 7.8 7.8 0.00 0.00 0.00 -999.0
20260506194900 0 156 9.6 9.6 0.00 0.00 0.00 -999.0
20260506194801 0 125 7.0 7.0 0.00 0.00 0.00 -999.0
20260506194700 0 161 7.8 7.8 0.00 0.00 0.00 -999.0
20260506194600 0 151 10.4 10.4 0.00 0.00 0.00 -999.0
20260506194500 0 139 12.2 12.2 0.00 0.00 0.00 -999.0
20260506194201 0 144 6.1 6.1 0.00 0.00 0.00 -999.0
20260506194101 0 137 10.4 10.4 0.00 0.00 0.00 -999.0
20260506194000 0 150 11.3 11.3 0.00 0.00 0.00 -999.0
20260506193900 0 146 11.3 11.3 0.00 0.00 0.00 -999.0
20260506193801 0 137 9.6 9.6 0.00 0.00 0.00 -999.0
20260506193701 0 145 10.4 10.4 0.00 0.00 0.00 -999.0
20260506193500 0 143 8.7 8.7 0.00 0.00 0.00 -999.0
20260506193401 0 141 7.8 7.8 0.00 0.00 0.00 -999.0
20260506193300 0 149 9.6 9.6 0.00 0.00 0.00 -999.0
20260506193201 0 141 9.6 9.6 0.00 0.00 0.00 -999.0
20260506193100 0 139 6.1 6.1 0.00 0.00 0.00 -999.0
20260506192901 0 146 7.8 7.8 0.00 0.00 0.00 -999.0
20260506192801 0 143 10.4 10.4 0.00 0.00 0.00 -999.0
20260506192700 0 146 12.2 12.2 0.00 0.00 0.00 -999.0
20260506192501 0 139 10.4 10.4 0.00 0.00 0.00 -999.0
20260506192300 0 139 9.6 9.6 0.00 0.00 0.00 -999.0
20260506192201 0 141 6.1 6.1 0.00 0.00 0.00 -999.0
20260506192001 0 143 7.8 7.8 0.00 0.00 0.00 -999.0
20260506191900 0 127 7.8 7.8 0.00 0.00 0.00 -999.0
20260506191801 0 103 7.8 7.8 0.00 0.00 0.00 -999.0
20260506191701 0 153 9.6 9.6 0.00 0.00 0.00 -999.0
20260506191601 0 158 8.7 8.7 0.00 0.00 0.00 -999.0
20260506191501 0 158 7.0 7.0 0.00 0.00 0.00 -999.0
20260506191400 0 148 9.6 9.6 0.00 0.00 0.00 -999.0
20260506191300 0 135 7.8 7.8 0.00 0.00 0.00 -999.0
20260506191201 0 133 7.8 7.8 0.00 0.00 0.00 -999.0
20260506191001 0 136 7.0 7.0 0.00 0.00 0.00 -999.0
20260506190901 0 141 7.8 7.8 0.00 0.00 0.00 -999.0
20260506190801 0 146 7.0 7.0 0.00 0.00 0.00 -999.0
20260506190700 0 145 10.4 10.4 0.00 0.00 0.00 -999.0
20260506190601 0 139 7.8 7.8 0.00 0.00 0.00 -999.0
20260506190500 0 142 8.7 8.7 0.00 0.00 0.00 -999.0
20260506190400 0 161 7.8 7.8 0.00 0.00 0.00 -999.0
20260506190300 0 149 8.7 8.7 0.00 0.00 0.00 -999.0
20260506190200 0 115 8.7 8.7 0.00 0.00 0.00 -999.0
20260506190101 0 122 7.0 7.0 0.00 0.00 0.00 -999.0
20260506190000 0 130 10.4 10.4 0.00 0.00 0.00 -999.0
20260506185901 0 139 7.0 7.0 0.00 0.00 0.00 -999.0
20260506185801 0 132 5.2 5.2 0.00 0.00 0.00 -999.0
20260506185700 0 157 7.0 7.0 0.00 0.00 0.00 -999.0
20260506185600 0 131 10.4 10.4 0.00 0.00 0.00 -999.0
20260506185501 0 108 8.7 8.7 0.00 0.00 0.00 -999.0
20260506185300 0 133 9.6 9.6 0.00 0.00 0.00 -999.0
20260506185201 0 136 8.7 8.7 0.00 0.00 0.00 -999.0
20260506185100 0 142 7.0 7.0 0.00 0.00 0.00 -999.0
20260506185001 0 130 7.0 7.0 0.00 0.00 0.00 -999.0
20260506184901 0 150 7.0 7.0 0.00 0.00 0.00 -999.0
20260506184800 0 134 7.0 7.0 0.00 0.00 0.00 -999.0
20260506184700 0 125 8.7 8.7 0.00 0.00 0.00 -999.0
20260506184501 0 138 7.0 7.0 0.00 0.00 0.00 -999.0
20260506184300 0 122 7.0 7.0 0.00 0.00 0.00 -999.0
20260506184200 0 145 7.8 7.8 0.00 0.00 0.00 -999.0
20260506184100 0 158 7.0 7.0 0.00 0.00 0.00 -999.0
20260506183901 0 155 7.8 7.8 0.00 0.00 0.00 -999.0
20260506183801 0 149 7.8 7.8 0.00 0.00 0.00 -999.0
20260506183700 0 136 7.8 7.8 0.00 0.00 0.00 -999.0
20260506183601 0 142 7.8 7.8 0.00 0.00 0.00 -999.0
20260506183500 0 156 7.8 7.8 0.00 0.00 0.00 -999.0
20260506183400 0 143 9.6 9.6 0.00 0.00 0.00 -999.0
20260506183301 0 150 7.0 7.0 0.00 0.00 0.00 -999.0
20260506183201 0 126 7.8 7.8 0.00 0.00 0.00 -999.0
20260506183101 0 136 7.8 7.8 0.00 0.00 0.00 -999.0
20260506183001 0 113 7.0 7.0 0.00 0.00 0.00 -999.0
20260506182901 0 141 8.7 8.7 0.00 0.00 0.00 -999.0
20260506182800 0 170 5.2 5.2 0.00 0.00 0.00 -999.0
20260506182700 0 124 6.1 6.1 0.00 0.00 0.00 -999.0
20260506182601 0 148 6.1 6.1 0.00 0.00 0.00 -999.0
20260506182501 0 147 8.7 8.7 0.00 0.00 0.00 -999.0
20260506182400 0 134 7.0 7.0 0.00 0.00 0.00 -999.0
20260506182101 0 138 7.0 7.0 0.00 0.00 0.00 -999.0
20260506182000 0 148 6.1 6.1 0.00 0.00 0.00 -999.0
20260506181900 0 143 8.7 8.7 0.00 0.00 0.00 -999.0
20260506181800 0 155 7.0 7.0 0.00 0.00 0.00 -999.0
20260506181700 0 149 7.0 7.0 0.00 0.00 0.00 -999.0
20260506181600 0 138 5.2 5.2 0.00 0.00 0.00 -999.0
20260506181500 0 153 7.0 7.0 0.00 0.00 0.00 -999.0
20260506181400 0 154 8.7 8.7 0.00 0.00 0.00 -999.0
20260506181300 0 165 7.0 7.0 0.00 0.00 0.00 -999.0
20260506181000 0 143 7.0 7.0 0.00 0.00 0.00 -999.0
20260506180901 0 155 7.8 7.8 0.00 0.00 0.00 -999.0
20260506180800 0 145 8.7 8.7 0.00 0.00 0.00 -999.0
20260506180600 0 144 7.8 7.8 0.00 0.00 0.00 -999.0
20260506180500 0 158 7.0 7.0 0.00 0.00 0.00 -999.0
20260506180400 0 154 5.2 5.2 0.00 0.00 0.00 -999.0
20260506180300 0 144 7.8 7.8 0.00 0.00 0.00 -999.0
20260506180200 0 144 7.8 7.8 0.00 0.00 0.00 -999.0
20260506180100 0 133 8.7 8.7 0.00 0.00 0.00 -999.0
20260506180000 0 139 6.1 6.1 0.00 0.00 0.00 -999.0
20260506175900 0 148 7.8 7.8 0.00 0.00 0.00 -999.0
20260506175800 0 146 5.2 5.2 0.00 0.00 0.00 -999.0
20260506175600 0 146 8.7 8.7 0.00 0.00 0.00 -999.0
20260506175500 0 128 6.1 6.1 0.00 0.00 0.00 -999.0
20260506175400 0 141 6.1 6.1 0.00 0.00 0.00 -999.0
20260506175300 0 141 5.2 5.2 0.00 0.00 0.00 -999.0
20260506175200 0 133 6.1 6.1 0.00 0.00 0.00 -999.0
20260506175100 0 142 5.2 5.2 0.00 0.00 0.00 -999.0
20260506175001 0 133 6.1 6.1 0.00 0.00 0.00 -999.0
20260506174900 0 148 3.5 3.5 0.00 0.00 0.00 -999.0
20260506174800 0 136 4.3 4.3 0.00 0.00 0.00 -999.0
20260506174700 0 140 7.0 7.0 0.00 0.00 0.00 -999.0
20260506174600 0 136 7.0 7.0 0.00 0.00 0.00 -999.0
20260506174500 0 125 7.0 7.0 0.00 0.00 0.00 -999.0
20260506174400 0 141 7.0 7.0 0.00 0.00 0.00 -999.0
20260506174300 0 148 6.1 6.1 0.00 0.00 0.00 -999.0
20260506174200 0 135 7.0 7.0 0.00 0.00 0.00 -999.0
20260506174100 0 136 3.5 3.5 0.00 0.00 0.00 -999.0
20260506174001 0 150 6.1 6.1 0.00 0.00 0.00 -999.0
20260506173900 0 128 5.2 5.2 0.00 0.00 0.00 -999.0
20260506173800 0 136 4.3 4.3 0.00 0.00 0.00 -999.0
20260506173700 0 131 5.2 5.2 0.00 0.00 0.00 -999.0
20260506173501 0 144 7.0 7.0 0.00 0.00 0.00 -999.0
20260506173400 0 142 7.0 7.0 0.00 0.00 0.00 -999.0
20260506173300 0 119 7.0 7.0 0.00 0.00 0.00 -999.0
20260506173200 0 125 5.2 5.2 0.00 0.00 0.00 -999.0
20260506173100 0 137 5.2 5.2 0.00 0.00 0.00 -999.0
20260506173001 0 142 4.3 4.3 0.00 0.00 0.00 -999.0
20260506172901 0 126 6.1 6.1 0.00 0.00 0.00 -999.0
20260506172800 0 120 4.3 4.3 0.00 0.00 0.00 -999.0
20260506172700 0 124 5.2 5.2 0.00 0.00 0.00 -999.0
20260506172600 0 142 5.2 5.2 0.00 0.00 0.00 -999.0
20260506172500 0 131 6.1 6.1 0.00 0.00 0.00 -999.0
20260506172400 0 120 7.0 7.0 0.00 0.00 0.00 -999.0
20260506172200 0 131 6.1 6.1 0.00 0.00 0.00 -999.0
20260506172100 0 137 3.5 3.5 0.00 0.00 0.00 -999.0
20260506172000 0 127 4.3 4.3 0.00 0.00 0.00 -999.0
20260506171900 0 143 3.5 3.5 0.00 0.00 0.00 -999.0
20260506171700 0 124 3.5 3.5 0.00 0.00 0.00 -999.0
20260506171600 0 146 4.3 4.3 0.00 0.00 0.00 -999.0
20260506171500 0 150 3.5 3.5 0.00 0.00 0.00 -999.0
20260506171400 0 130 5.2 5.2 0.00 0.00 0.00 -999.0
20260506171200 0 131 5.2 5.2 0.00 0.00 0.00 -999.0
20260506171100 0 115 6.1 6.1 0.00 0.00 0.00 -999.0
20260506170900 0 131 5.2 5.2 0.00 0.00 0.00 -999.0
20260506170800 0 131 5.2 5.2 0.00 0.00 0.00 -999.0
20260506170700 0 119 6.1 6.1 0.00 0.00 0.00 -999.0
20260506170600 0 137 5.2 5.2 0.00 0.00 0.00 -999.0
20260506170500 0 139 4.3 4.3 0.00 0.00 0.00 -999.0
20260506170400 0 129 6.1 6.1 0.00 0.00 0.00 -999.0
20260506170300 0 122 4.3 4.3 0.00 0.00 0.00 -999.0
20260506170201 0 139 5.2 5.2 0.00 0.00 0.00 -999.0
20260506170101 0 139 4.3 4.3 0.00 0.00 0.00 -999.0
20260506170001 0 124 5.2 5.2 0.00 0.00 0.00 -999.0
20260506165900 0 122 5.2 5.2 0.00 0.00 0.00 -999.0
20260506165800 0 126 4.3 4.3 0.00 0.00 0.00 -999.0
20260506165701 0 122 4.3 4.3 0.00 0.00 0.00 -999.0
20260506165500 0 133 5.2 5.2 0.00 0.00 0.00 -999.0
20260506165400 0 132 5.2 5.2 0.00 0.00 0.00 -999.0
20260506165300 0 127 7.8 7.8 0.00 0.00 0.00 -999.0
20260506165200 0 130 6.1 6.1 0.00 0.00 0.00 -999.0
20260506165100 0 134 6.1 6.1 0.00 0.00 0.00 -999.0
20260506165000 0 129 6.1 6.1 0.00 0.00 0.00 -999.0
20260506164700 0 117 5.2 5.2 0.00 0.00 0.00 -999.0
20260506164601 0 103 7.0 7.0 0.00 0.00 0.00 -999.0
20260506164500 0 133 5.2 5.2 0.00 0.00 0.00 -999.0
20260506164400 0 131 7.0 7.0 0.00 0.00 0.00 -999.0
20260506164301 0 148 6.1 6.1 0.00 0.00 0.00 -999.0
20260506164200 0 140 5.2 5.2 0.00 0.00 0.00 -999.0
20260506164101 0 122 4.3 4.3 0.00 0.00 0.00 -999.0
20260506163900 0 131 5.2 5.2 0.00 0.00 0.00 -999.0
20260506163801 0 142 5.2 5.2 0.00 0.00 0.00 -999.0
20260506163700 0 131 3.5 3.5 0.00 0.00 0.00 -999.0
20260506163600 0 135 2.6 2.6 0.00 0.00 0.00 -999.0
20260506163500 0 146 0.9 0.9 0.00 0.00 0.00 -999.0
20260506163200 0 161 2.6 2.6 0.00 0.00 0.00 -999.0
20260506163101 0 210 2.6 2.6 0.00 0.00 0.00 -999.0
20260506163001 0 155 3.5 3.5 0.00 0.00 0.00 -999.0
20260506162800 0 117 4.3 4.3 0.00 0.00 0.00 -999.0
20260506162700 0 113 3.5 3.5 0.00 0.00 0.00 -999.0
20260506162500 0 125 2.6 2.6 0.00 0.00 0.00 -999.0
20260506162401 0 107 2.6 2.6 0.00 0.00 0.00 -999.0
20260506162301 0 155 0.9 0.9 0.00 0.00 0.00 -999.0
20260506162200 0 110 0.9 0.9 0.00 0.00 0.00 -999.0
20260506162101 0 102 0.0 0.0 0.00 0.00 0.00 -999.0
20260506162000 0 102 0.0 0.0 0.00 0.00 0.00 -999.0
20260506161900 0 101 0.0 0.0 0.00 0.00 0.00 -999.0
20260506161800 0 102 0.0 0.0 0.00 0.00 0.00 -999.0
20260506161701 0 101 0.9 0.9 0.00 0.00 0.00 -999.0
20260506161601 0 101 0.9 0.9 0.00 0.00 0.00 -999.0
20260506161501 0 110 0.0 0.0 0.00 0.00 0.00 -999.0
20260506161401 0 127 0.9 0.9 0.00 0.00 0.00 -999.0
20260506161200 0 134 1.7 1.7 0.00 0.00 0.00 -999.0
20260506161101 0 159 1.7 1.7 0.00 0.00 0.00 -999.0
20260506161000 0 122 2.6 2.6 0.00 0.00 0.00 -999.0
20260506160901 0 120 2.6 2.6 0.00 0.00 0.00 -999.0
20260506160801 0 131 1.7 1.7 0.00 0.00 0.00 -999.0
20260506160700 0 174 2.6 2.6 0.00 0.00 0.00 -999.0
20260506160601 0 130 4.3 4.3 0.00 0.00 0.00 -999.0
20260506160501 0 124 3.5 3.5 0.00 0.00 0.00 -999.0
20260506160301 0 111 2.6 2.6 0.00 0.00 0.00 -999.0
20260506160201 0 120 1.7 1.7 0.00 0.00 0.00 -999.0
20260506160100 0 115 0.0 0.0 0.00 0.00 0.00 -999.0
20260506160001 0 115 0.0 0.0 0.00 0.00 0.00 -999.0
20260506155801 0 103 0.9 0.9 0.00 0.00 0.00 -999.0
20260506155700 0 133 0.9 0.9 0.00 0.00 0.00 -999.0
20260506155600 0 136 1.7 1.7 0.00 0.00 0.00 -999.0
20260506155300 0 127 2.6 2.6 0.00 0.00 0.00 -999.0
20260506155001 0 116 3.5 3.5 0.00 0.00 0.00 -999.0
20260506154901 0 127 1.7 1.7 0.00 0.00 0.00 -999.0
20260506154801 0 138 2.6 2.6 0.00 0.00 0.00 -999.0
20260506154701 0 133 3.5 3.5 0.00 0.00 0.00 -999.0
20260506154600 0 157 0.9 0.9 0.00 0.00 0.00 -999.0
20260506154500 0 141 2.6 2.6 0.00 0.00 0.00 -999.0
20260506154401 0 136 0.9 0.9 0.00 0.00 0.00 -999.0
20260506154300 0 131 5.2 5.2 0.00 0.00 0.00 -999.0
20260506154201 0 134 4.3 4.3 0.00 0.00 0.00 -999.0
20260506154001 0 140 3.5 3.5 0.00 0.00 0.00 -999.0
20260506153901 0 100 3.5 3.5 0.00 0.00 0.00 -999.0
20260506153800 0 141 3.5 3.5 0.00 0.00 0.00 -999.0
20260506153700 0 158 3.5 3.5 0.00 0.00 0.00 -999.0
20260506153601 0 129 3.5 3.5 0.00 0.00 0.00 -999.0
20260506153501 0 136 4.3 4.3 0.00 0.00 0.00 -999.0
20260506153301 0 160 0.9 0.9 0.00 0.00 0.00 -999.0
20260506153200 0 136 3.5 3.5 0.00 0.00 0.00 -999.0
20260506153001 0 157 3.5 3.5 0.00 0.00 0.00 -999.0
20260506152801 0 199 2.6 2.6 0.00 0.00 0.00 -999.0
20260506152700 0 206 5.2 5.2 0.00 0.00 0.00 -999.0
20260506152601 0 198 1.7 1.7 0.00 0.00 0.00 -999.0
20260506152500 0 200 3.5 3.5 0.00 0.00 0.00 -999.0
20260506152400 0 193 2.6 2.6 0.00 0.00 0.00 -999.0
20260506152300 0 206 4.3 4.3 0.00 0.00 0.00 -999.0
20260506152200 0 200 7.8 7.8 0.00 0.00 0.00 -999.0
20260506152101 0 212 3.5 3.5 0.00 0.00 0.00 -999.0
20260506152001 0 194 0.9 0.9 0.00 0.00 0.00 -999.0
20260506151901 0 158 2.6 2.6 0.00 0.00 0.00 -999.0
20260506151800 0 214 1.7 1.7 0.00 0.00 0.00 -999.0
20260506151701 0 198 2.6 2.6 0.00 0.00 0.00 -999.0
20260506151600 0 187 3.5 3.5 0.00 0.00 0.00 -999.0
20260506151501 0 183 1.7 1.7 0.00 0.00 0.00 -999.0
20260506151400 0 217 0.9 0.9 0.00 0.00 0.00 -999.0
20260506151301 0 221 2.6 2.6 0.00 0.00 0.00 -999.0
20260506151200 0 127 3.5 3.5 0.00 0.00 0.00 -999.0
20260506151100 0 198 3.5 3.5 0.00 0.00 0.00 -999.0
20260506150701 0 230 3.5 3.5 0.00 0.00 0.00 -999.0
20260506150600 0 195 6.1 6.1 0.00 0.00 0.00 -999.0
20260506150501 0 202 3.5 3.5 0.00 0.00 0.00 -999.0
20260506150401 0 229 4.3 4.3 0.00 0.00 0.00 -999.0
20260506150304 0 197 4.3 4.3 0.00 0.00 0.00 -999.0
20260506150101 0 159 2.6 2.6 0.00 0.00 0.00 -999.0
20260506145901 0 232 5.2 5.2 0.00 0.00 0.00 -999.0
20260506145801 0 226 3.5 3.5 0.00 0.00 0.00 -999.0
20260506145700 0 220 2.6 2.6 0.00 0.00 0.00 -999.0
20260506145601 0 226 5.2 5.2 0.00 0.00 0.00 -999.0
20260506145400 0 217 4.3 4.3 0.00 0.00 0.00 -999.0
20260506145301 0 198 4.3 4.3 0.00 0.00 0.00 -999.0
20260506145201 0 184 4.3 4.3 0.00 0.00 0.00 -999.0
20260506145100 0 207 4.3 4.3 0.00 0.00 0.00 -999.0
20260506145000 0 198 4.3 4.3 0.00 0.00 0.00 -999.0
20260506144900 0 200 7.8 7.8 0.00 0.00 0.00 -999.0
20260506144700 0 188 2.6 2.6 0.00 0.00 0.00 -999.0
20260506144600 0 185 7.0 7.0 0.00 0.00 0.00 -999.0
20260506144400 0 214 0.9 0.9 0.00 0.00 0.00 -999.0
20260506144200 0 140 3.5 3.5 0.00 0.00 0.00 -999.0
20260506144100 0 214 3.5 3.5 0.00 0.00 0.00 -999.0
20260506143900 0 234 3.5 3.5 0.00 0.00 0.00 -999.0
20260506143801 0 214 7.8 7.8 0.00 0.00 0.00 -999.0
20260506143700 0 191 6.1 6.1 0.00 0.00 0.00 -999.0
20260506143600 0 208 3.5 3.5 0.00 0.00 0.00 -999.0
20260506143500 0 214 6.1 6.1 0.00 0.00 0.00 -999.0
20260506143301 0 199 1.7 1.7 0.00 0.00 0.00 -999.0
20260506143200 0 217 3.5 3.5 0.00 0.00 0.00 -999.0
20260506143100 0 207 3.5 3.5 0.00 0.00 0.00 -999.0
20260506143000 0 207 7.8 7.8 0.00 0.00 0.00 -999.0
20260506142701 0 184 7.8 7.8 0.00 0.00 0.00 -999.0
20260506142601 0 195 4.3 4.3 0.00 0.00 0.00 -999.0
20260506142401 0 202 2.6 2.6 0.00 0.00 0.00 -999.0
20260506142301 0 153 5.2 5.2 0.00 0.00 0.00 -999.0
20260506142200 0 188 0.9 0.9 0.00 0.00 0.00 -999.0
20260506142001 0 205 1.7 1.7 0.00 0.00 0.00 -999.0
20260506141801 0 215 0.9 0.9 0.00 0.00 0.00 -999.0
20260506141501 0 241 7.0 7.0 0.00 0.00 0.00 -999.0
20260506141401 0 243 7.0 7.0 0.00 0.00 0.00 -999.0
20260506141301 0 235 6.1 6.1 0.00 0.00 0.00 -999.0
20260506141200 0 241 3.5 3.5 0.00 0.00 0.00 -999.0
20260506141100 0 240 4.3 4.3 0.00 0.00 0.00 -999.0
20260506141001 0 193 4.3 4.3 0.00 0.00 0.00 -999.0
20260506140901 0 211 0.9 0.9 0.00 0.00 0.00 -999.0
20260506140801 0 165 2.6 2.6 0.00 0.00 0.00 -999.0
20260506140701 0 176 3.5 3.5 0.00 0.00 0.00 -999.0
20260506140600 0 187 4.3 4.3 0.00 0.00 0.00 -999.0
20260506140500 0 229 3.5 3.5 0.00 0.00 0.00 -999.0
20260506140401 0 232 4.3 4.3 0.00 0.00 0.00 -999.0
20260506140301 0 205 5.2 5.2 0.00 0.00 0.00 -999.0
20260506140201 0 155 6.1 6.1 0.00 0.00 0.00 -999.0
20260506140101 0 185 4.3 4.3 0.00 0.00 0.00 -999.0
20260506140000 0 236 6.1 6.1 0.00 0.00 0.00 -999.0
20260506135901 0 222 5.2 5.2 0.00 0.00 0.00 -999.0
20260506135800 0 229 3.5 3.5 0.00 0.00 0.00 -999.0
20260506135601 0 172 4.3 4.3 0.00 0.00 0.00 -999.0
20260506135500 0 195 3.5 3.5 0.00 0.00 0.00 -999.0
20260506135400 0 192 2.6 2.6 0.00 0.00 0.00 -999.0
20260506135300 0 229 2.6 2.6 0.00 0.00 0.00 -999.0
20260506135201 0 184 3.5 3.5 0.00 0.00 0.00 -999.0
20260506134901 0 227 0.9 0.9 0.00 0.00 0.00 -999.0
20260506134801 0 145 3.5 3.5 0.00 0.00 0.00 -999.0
20260506134700 0 241 4.3 4.3 0.00 0.00 0.00 -999.0
20260506134600 0 197 4.3 4.3 0.00 0.00 0.00 -999.0
20260506134501 0 166 1.7 1.7 0.00 0.00 0.00 -999.0
20260506134400 0 212 2.6 2.6 0.00 0.00 0.00 -999.0
20260506134300 0 186 2.6 2.6 0.00 0.00 0.00 -999.0
20260506134200 0 189 4.3 4.3 0.00 0.00 0.00 -999.0
20260506134100 0 219 5.2 5.2 0.00 0.00 0.00 -999.0
20260506134001 0 232 5.2 5.2 0.00 0.00 0.00 -999.0
20260506133900 0 165 1.7 1.7 0.00 0.00 0.00 -999.0
20260506133701 0 227 5.2 5.2 0.00 0.00 0.00 -999.0
20260506133600 0 218 1.7 1.7 0.00 0.00 0.00 -999.0
20260506133501 0 213 6.1 6.1 0.00 0.00 0.00 -999.0
20260506133401 0 196 5.2 5.2 0.00 0.00 0.00 -999.0
20260506133300 0 229 5.2 5.2 0.00 0.00 0.00 -999.0
20260506133201 0 223 3.5 3.5 0.00 0.00 0.00 -999.0
20260506133100 0 210 5.2 5.2 0.00 0.00 0.00 -999.0
20260506133001 0 203 6.1 6.1 0.00 0.00 0.00 -999.0
20260506132900 0 207 3.5 3.5 0.00 0.00 0.00 -999.0
20260506132801 0 219 4.3 4.3 0.00 0.00 0.00 -999.0
20260506132601 0 214 5.2 5.2 0.00 0.00 0.00 -999.0
20260506132501 0 164 2.6 2.6 0.00 0.00 0.00 -999.0
20260506132400 0 208 4.3 4.3 0.00 0.00 0.00 -999.0
20260506132200 0 203 3.5 3.5 0.00 0.00 0.00 -999.0
20260506132001 0 211 3.5 3.5 0.00 0.00 0.00 -999.0
20260506131800 0 203 4.3 4.3 0.00 0.00 0.00 -999.0
20260506131601 0 191 2.6 2.6 0.00 0.00 0.00 -999.0
20260506131500 0 219 6.1 6.1 0.00 0.00 0.00 -999.0
20260506131401 0 247 2.6 2.6 0.00 0.00 0.00 -999.0
20260506131300 0 219 4.3 4.3 0.00 0.00 0.00 -999.0
20260506131201 0 217 6.1 6.1 0.00 0.00 0.00 -999.0
20260506131101 0 195 3.5 3.5 0.00 0.00 0.00 -999.0
20260506131001 0 227 3.5 3.5 0.00 0.00 0.00 -999.0
20260506130900 0 232 6.1 6.1 0.00 0.00 0.00 -999.0
20260506130800 0 194 6.1 6.1 0.00 0.00 0.00 -999.0
20260506130701 0 215 7.0 7.0 0.00 0.00 0.00 -999.0
20260506130600 0 162 5.2 5.2 0.00 0.00 0.00 -999.0
20260506130400 0 193 5.2 5.2 0.00 0.00 0.00 -999.0
20260506130200 0 192 2.6 2.6 0.00 0.00 0.00 -999.0
20260506130100 0 179 4.3 4.3 0.00 0.00 0.00 -999.0
20260506130001 0 214 0.0 0.0 0.00 0.00 0.00 -999.0
20260506125801 0 232 4.3 4.3 0.00 0.00 0.00 -999.0
20260506125700 0 234 4.3 4.3 0.00 0.00 0.00 -999.0
20260506125600 0 209 7.0 7.0 0.00 0.00 0.00 -999.0
20260506125500 0 203 4.3 4.3 0.00 0.00 0.00 -999.0
20260506125401 0 224 5.2 5.2 0.00 0.00 0.00 -999.0
20260506125301 0 214 7.8 7.8 0.00 0.00 0.00 -999.0
20260506125200 0 226 4.3 4.3 0.00 0.00 0.00 -999.0
20260506125101 0 193 1.7 1.7 0.00 0.00 0.00 -999.0
20260506125000 0 226 6.1 6.1 0.00 0.00 0.00 -999.0
20260506124901 0 176 1.7 1.7 0.00 0.00 0.00 -999.0
20260506124800 0 213 3.5 3.5 0.00 0.00 0.00 -999.0
20260506124701 0 212 3.5 3.5 0.00 0.00 0.00 -999.0
20260506124600 0 229 2.6 2.6 0.00 0.00 0.00 -999.0
20260506124501 0 224 2.6 2.6 0.00 0.00 0.00 -999.0
20260506124400 0 165 2.6 2.6 0.00 0.00 0.00 -999.0
20260506124301 0 218 6.1 6.1 0.00 0.00 0.00 -999.0
20260506124200 0 198 6.1 6.1 0.00 0.00 0.00 -999.0
20260506124100 0 214 4.3 4.3 0.00 0.00 0.00 -999.0
20260506124000 0 230 2.6 2.6 0.00 0.00 0.00 -999.0
20260506123900 0 162 2.6 2.6 0.00 0.00 0.00 -999.0
20260506123800 0 157 4.3 4.3 0.00 0.00 0.00 -999.0
20260506123700 0 229 5.2 5.2 0.00 0.00 0.00 -999.0
20260506123600 0 235 8.7 8.7 0.00 0.00 0.00 -999.0
20260506123500 0 220 8.7 8.7 0.00 0.00 0.00 -999.0
20260506123401 0 233 5.2 5.2 0.00 0.00 0.00 -999.0
20260506123300 0 185 3.5 3.5 0.00 0.00 0.00 -999.0
20260506123001 0 214 5.2 5.2 0.00 0.00 0.00 -999.0
20260506122901 0 202 1.7 1.7 0.00 0.00 0.00 -999.0
20260506122801 0 166 1.7 1.7 0.00 0.00 0.00 -999.0
20260506122600 0 220 5.2 5.2 0.00 0.00 0.00 -999.0
20260506122401 0 221 2.6 2.6 0.00 0.00 0.00 -999.0
20260506122301 0 206 1.7 1.7 0.00 0.00 0.00 -999.0
20260506122201 0 210 4.3 4.3 0.00 0.00 0.00 -999.0
20260506122100 0 210 4.3 4.3 0.00 0.00 0.00 -999.0
20260506122001 0 226 6.1 6.1 0.00 0.00 0.00 -999.0
20260506121802 0 221 1.7 1.7 0.00 0.00 0.00 -999.0
20260506121700 0 200 3.5 3.5 0.00 0.00 0.00 -999.0
20260506121601 0 217 1.7 1.7 0.00 0.00 0.00 -999.0
20260506121400 0 231 4.3 4.3 0.00 0.00 0.00 -999.0
20260506121300 0 194 1.7 1.7 0.00 0.00 0.00 -999.0
20260506121201 0 217 0.9 0.9 0.00 0.00 0.00 -999.0
20260506121100 0 214 2.6 2.6 0.00 0.00 0.00 -999.0
20260506121000 0 211 1.7 1.7 0.00 0.00 0.00 -999.0
20260506120901 0 183 4.3 4.3 0.00 0.00 0.00 -999.0
20260506120800 0 226 6.1 6.1 0.00 0.00 0.00 -999.0
20260506120701 0 141 3.5 3.5 0.00 0.00 0.00 -999.0
20260506120600 0 218 3.5 3.5 0.00 0.00 0.00 -999.0
20260506120502 0 194 2.6 2.6 0.00 0.00 0.00 -999.0
20260506120300 0 210 0.9 0.9 0.00 0.00 0.00 -999.0
20260506120200 0 229 3.5 3.5 0.00 0.00 0.00 -999.0
20260506120100 0 209 0.9 0.9 0.00 0.00 0.00 -999.0
20260506120001 0 204 5.2 5.2 0.00 0.00 0.00 -999.0
20260506115902 0 207 2.6 2.6 0.00 0.00 0.00 -999.0
20260506115800 0 198 1.7 1.7 0.00 0.00 0.00 -999.0
20260506115700 0 205 0.9 0.9 0.00 0.00 0.00 -999.0
20260506115600 0 196 3.5 3.5 0.00 0.00 0.00 -999.0
20260506115500 0 234 2.6 2.6 0.00 0.00 0.00 -999.0
20260506115400 0 234 4.3 4.3 0.00 0.00 0.00 -999.0
20260506115200 0 221 2.6 2.6 0.00 0.00 0.00 -999.0
20260506115101 0 204 4.3 4.3 0.00 0.00 0.00 -999.0
20260506115000 0 196 3.5 3.5 0.00 0.00 0.00 -999.0
20260506114900 0 212 2.6 2.6 0.00 0.00 0.00 -999.0
20260506114800 0 137 3.5 3.5 0.00 0.00 0.00 -999.0
20260506114700 0 197 5.2 5.2 0.00 0.00 0.00 -999.0
20260506114601 0 174 4.3 4.3 0.00 0.00 0.00 -999.0
20260506114500 0 243 1.7 1.7 0.00 0.00 0.00 -999.0
20260506114400 0 205 3.5 3.5 0.00 0.00 0.00 -999.0
20260506114300 0 210 3.5 3.5 0.00 0.00 0.00 -999.0
20260506114200 0 198 4.3 4.3 0.00 0.00 0.00 -999.0
20260506114101 0 189 4.3 4.3 0.00 0.00 0.00 -999.0
20260506114000 0 168 4.3 4.3 0.00 0.00 0.00 -999.0
20260506113900 0 191 0.9 0.9 0.00 0.00 0.00 -999.0
20260506113703 0 136 3.5 3.5 0.00 0.00 0.00 -999.0
20260506113402 0 188 1.7 1.7 0.00 0.00 0.00 -999.0
20260506113301 0 203 0.9 0.9 0.00 0.00 0.00 -999.0
20260506113200 0 224 4.3 4.3 0.00 0.00 0.00 -999.0
20260506113100 0 219 2.6 2.6 0.00 0.00 0.00 -999.0
20260506113000 0 179 1.7 1.7 0.00 0.00 0.00 -999.0
20260506112900 0 168 1.7 1.7 0.00 0.00 0.00 -999.0
20260506112800 0 211 4.3 4.3 0.00 0.00 0.00 -999.0
20260506112701 0 141 0.9 0.9 0.00 0.00 0.00 -999.0
20260506112600 0 195 0.9 0.9 0.00 0.00 0.00 -999.0
20260506112500 0 196 3.5 3.5 0.00 0.00 0.00 -999.0
20260506112400 0 190 3.5 3.5 0.00 0.00 0.00 -999.0
20260506112300 0 196 4.3 4.3 0.00 0.00 0.00 -999.0
20260506112201 0 182 6.1 6.1 0.00 0.00 0.00 -999.0
20260506112101 0 153 3.5 3.5 0.00 0.00 0.00 -999.0
20260506112001 0 181 5.2 5.2 0.00 0.00 0.00 -999.0
20260506111900 0 182 2.6 2.6 0.00 0.00 0.00 -999.0
20260506111801 0 159 2.6 2.6 0.00 0.00 0.00 -999.0
20260506111700 0 202 3.5 3.5 0.00 0.00 0.00 -999.0
20260506111501 0 203 5.2 5.2 0.00 0.00 0.00 -999.0
20260506111401 0 196 2.6 2.6 0.00 0.00 0.00 -999.0
20260506111300 0 160 7.0 7.0 0.00 0.00 0.00 -999.0
20260506110900 0 209 2.6 2.6 0.00 0.00 0.00 -999.0
20260506110800 0 167 3.5 3.5 0.00 0.00 0.00 -999.0
20260506110701 0 191 4.3 4.3 0.00 0.00 0.00 -999.0
20260506110600 0 176 2.6 2.6 0.00 0.00 0.00 -999.0
20260506110500 0 179 2.6 2.6 0.00 0.00 0.00 -999.0
20260506110300 0 193 2.6 2.6 0.00 0.00 0.00 -999.0
20260506110200 0 222 2.6 2.6 0.00 0.00 0.00 -999.0
20260506105900 0 160 1.7 1.7 0.00 0.00 0.00 -999.0
20260506105600 0 197 5.2 5.2 0.00 0.00 0.00 -999.0
20260506105500 0 199 3.5 3.5 0.00 0.00 0.00 -999.0
20260506105100 0 198 4.3 4.3 0.00 0.00 0.00 -999.0
20260506105000 0 201 1.7 1.7 0.00 0.00 0.00 -999.0
20260506104800 0 220 4.3 4.3 0.00 0.00 0.00 -999.0
20260506104700 0 212 1.7 1.7 0.00 0.00 0.00 -999.0
20260506104600 0 193 2.6 2.6 0.00 0.00 0.00 -999.0
20260506104500 0 164 4.3 4.3 0.00 0.00 0.00 -999.0
20260506104300 0 156 1.7 1.7 0.00 0.00 0.00 -999.0
20260506104200 0 193 4.3 4.3 0.00 0.00 0.00 -999.0
20260506104100 0 193 1.7 1.7 0.00 0.00 0.00 -999.0
20260506104001 0 192 3.5 3.5 0.00 0.00 0.00 -999.0
20260506103900 0 227 6.1 6.1 0.00 0.00 0.00 -999.0
20260506103800 0 157 1.7 1.7 0.00 0.00 0.00 -999.0
20260506103600 0 188 1.7 1.7 0.00 0.00 0.00 -999.0
20260506103501 0 178 5.2 5.2 0.00 0.00 0.00 -999.0
20260506103400 0 196 3.5 3.5 0.00 0.00 0.00 -999.0
20260506103300 0 199 4.3 4.3 0.00 0.00 0.00 -999.0
20260506103200 0 204 7.0 7.0 0.00 0.00 0.00 -999.0
20260506103100 0 195 2.6 2.6 0.00 0.00 0.00 -999.0
20260506103000 0 199 3.5 3.5 0.00 0.00 0.00 -999.0
20260506102901 0 169 5.2 5.2 0.00 0.00 0.00 -999.0
20260506102801 0 194 2.6 2.6 0.00 0.00 0.00 -999.0
20260506102700 0 198 3.5 3.5 0.00 0.00 0.00 -999.0
20260506102600 0 219 5.2 5.2 0.00 0.00 0.00 -999.0
20260506102500 0 217 6.1 6.1 0.00 0.00 0.00 -999.0
20260506102400 0 217 2.6 2.6 0.00 0.00 0.00 -999.0
20260506102301 0 202 3.5 3.5 0.00 0.00 0.00 -999.0
20260506102100 0 187 2.6 2.6 0.00 0.00 0.00 -999.0
20260506102000 0 185 1.7 1.7 0.00 0.00 0.00 -999.0
20260506101900 0 170 4.3 4.3 0.00 0.00 0.00 -999.0
20260506101800 0 186 7.8 7.8 0.00 0.00 0.00 -999.0
20260506101700 0 167 2.6 2.6 0.00 0.00 0.00 -999.0
20260506101500 0 202 6.1 6.1 0.00 0.00 0.00 -999.0
20260506101401 0 174 1.7 1.7 0.00 0.00 0.00 -999.0
20260506101300 0 189 5.2 5.2 0.00 0.00 0.00 -999.0
20260506101201 0 188 2.6 2.6 0.00 0.00 0.00 -999.0
20260506101000 0 207 4.3 4.3 0.00 0.00 0.00 -999.0
20260506100900 0 190 3.5 3.5 0.00 0.00 0.00 -999.0
20260506100801 0 197 2.6 2.6 0.00 0.00 0.00 -999.0
20260506100700 0 191 2.6 2.6 0.00 0.00 0.00 -999.0
20260506100600 0 164 2.6 2.6 0.00 0.00 0.00 -999.0
20260506100500 0 217 2.6 2.6 0.00 0.00 0.00 -999.0
20260506100400 0 185 5.2 5.2 0.00 0.00 0.00 -999.0
20260506100300 0 167 1.7 1.7 0.00 0.00 0.00 -999.0
20260506100200 0 188 4.3 4.3 0.00 0.00 0.00 -999.0
20260506100100 0 193 4.3 4.3 0.00 0.00 0.00 -999.0
20260506100001 0 212 0.9 0.9 0.00 0.00 0.00 -999.0
20260506095900 0 181 7.0 7.0 0.00 0.00 0.00 -999.0
20260506095800 0 200 2.6 2.6 0.00 0.00 0.00 -999.0
20260506095700 0 169 6.1 6.1 0.00 0.00 0.00 -999.0
20260506095601 0 200 5.2 5.2 0.00 0.00 0.00 -999.0
20260506095301 0 197 3.5 3.5 0.00 0.00 0.00 -999.0
20260506095200 0 195 4.3 4.3 0.00 0.00 0.00 -999.0
20260506095100 0 155 3.5 3.5 0.00 0.00 0.00 -999.0
20260506095001 0 184 2.6 2.6 0.00 0.00 0.00 -999.0
20260506094900 0 202 2.6 2.6 0.00 0.00 0.00 -999.0
20260506094800 0 190 1.7 1.7 0.00 0.00 0.00 -999.0
20260506094701 0 187 5.2 5.2 0.00 0.00 0.00 -999.0
20260506094601 0 169 2.6 2.6 0.00 0.00 0.00 -999.0
20260506094501 0 238 3.5 3.5 0.00 0.00 0.00 -999.0
20260506094201 0 203 2.6 2.6 0.00 0.00 0.00 -999.0
20260506094100 0 235 2.6 2.6 0.00 0.00 0.00 -999.0
20260506094000 0 226 4.3 4.3 0.00 0.00 0.00 -999.0
20260506093901 0 181 4.3 4.3 0.00 0.00 0.00 -999.0
20260506093801 0 211 4.3 4.3 0.00 0.00 0.00 -999.0
20260506093700 0 149 5.2 5.2 0.00 0.00 0.00 -999.0
20260506093600 0 155 4.3 4.3 0.00 0.00 0.00 -999.0
20260506093501 0 172 0.9 0.9 0.00 0.00 0.00 -999.0
20260506093100 0 207 3.5 3.5 0.00 0.00 0.00 -999.0
20260506093000 0 165 0.9 0.9 0.00 0.00 0.00 -999.0
20260506092901 0 193 3.5 3.5 0.00 0.00 0.00 -999.0
20260506092801 0 200 5.2 5.2 0.00 0.00 0.00 -999.0
20260506092700 0 191 3.5 3.5 0.00 0.00 0.00 -999.0
20260506092601 0 157 3.5 3.5 0.00 0.00 0.00 -999.0
20260506092500 0 191 1.7 1.7 0.00 0.00 0.00 -999.0
20260506092400 0 207 2.6 2.6 0.00 0.00 0.00 -999.0
20260506092301 0 181 1.7 1.7 0.00 0.00 0.00 -999.0
20260506092201 0 193 6.1 6.1 0.00 0.00 0.00 -999.0
20260506092000 0 192 3.5 3.5 0.00 0.00 0.00 -999.0
20260506091900 0 203 0.9 0.9 0.00 0.00 0.00 -999.0
20260506091801 0 230 2.6 2.6 0.00 0.00 0.00 -999.0
20260506091700 0 174 1.7 1.7 0.00 0.00 0.00 -999.0
20260506091600 0 151 2.6 2.6 0.00 0.00 0.00 -999.0
20260506091401 0 217 6.1 6.1 0.00 0.00 0.00 -999.0
20260506091302 0 192 2.6 2.6 0.00 0.00 0.00 -999.0
20260506091200 0 189 7.8 7.8 0.00 0.00 0.00 -999.0
20260506091101 0 204 5.2 5.2 0.00 0.00 0.00 -999.0
20260506091001 0 207 2.6 2.6 0.00 0.00 0.00 -999.0
20260506090900 0 199 1.7 1.7 0.00 0.00 0.00 -999.0
20260506090801 0 165 4.3 4.3 0.00 0.00 0.00 -999.0
20260506090701 0 210 1.7 1.7 0.00 0.00 0.00 -999.0
20260506090601 0 219 4.3 4.3 0.00 0.00 0.00 -999.0
20260506090500 0 169 6.1 6.1 0.00 0.00 0.00 -999.0
20260506090200 0 184 2.6 2.6 0.00 0.00 0.00 -999.0
20260506085901 0 174 6.1 6.1 0.00 0.00 0.00 -999.0
20260506085800 0 200 0.9 0.9 0.00 0.00 0.00 -999.0
20260506085702 0 174 4.3 4.3 0.00 0.00 0.00 -999.0
20260506085500 0 200 0.9 0.9 0.00 0.00 0.00 -999.0
20260506085401 0 167 2.6 2.6 0.00 0.00 0.00 -999.0
20260506085300 0 172 5.2 5.2 0.00 0.00 0.00 -999.0
20260506085001 0 207 1.7 1.7 0.00 0.00 0.00 -999.0
20260506084901 0 208 1.7 1.7 0.00 0.00 0.00 -999.0
20260506084801 0 192 1.7 1.7 0.00 0.00 0.00 -999.0
20260506084701 0 178 3.5 3.5 0.00 0.00 0.00 -999.0
20260506084600 0 175 2.6 2.6 0.00 0.00 0.00 -999.0
20260506084500 0 157 3.5 3.5 0.00 0.00 0.00 -999.0
20260506084401 0 177 5.2 5.2 0.00 0.00 0.00 -999.0
20260506084300 0 173 2.6 2.6 0.00 0.00 0.00 -999.0
20260506084200 0 155 0.9 0.9 0.00 0.00 0.00 -999.0
20260506084101 0 165 2.6 2.6 0.00 0.00 0.00 -999.0
20260506084001 0 182 1.7 1.7 0.00 0.00 0.00 -999.0
20260506083900 0 211 2.6 2.6 0.00 0.00 0.00 -999.0
20260506083800 0 243 3.5 3.5 0.00 0.00 0.00 -999.0
20260506083701 0 155 3.5 3.5 0.00 0.00 0.00 -999.0
20260506083600 0 212 3.5 3.5 0.00 0.00 0.00 -999.0
20260506083500 0 203 3.5 3.5 0.00 0.00 0.00 -999.0
20260506083400 0 204 2.6 2.6 0.00 0.00 0.00 -999.0
20260506083301 0 210 4.3 4.3 0.00 0.00 0.00 -999.0
20260506083201 0 167 1.7 1.7 0.00 0.00 0.00 -999.0
20260506083001 0 165 2.6 2.6 0.00 0.00 0.00 -999.0
20260506082901 0 139 1.7 1.7 0.00 0.00 0.00 -999.0
20260506082700 0 189 1.7 1.7 0.00 0.00 0.00 -999.0
20260506082500 0 179 1.7 1.7 0.00 0.00 0.00 -999.0
20260506082400 0 188 5.2 5.2 0.00 0.00 0.00 -999.0
20260506082200 0 198 5.2 5.2 0.00 0.00 0.00 -999.0
20260506082101 0 212 3.5 3.5 0.00 0.00 0.00 -999.0
20260506082000 0 208 0.9 0.9 0.00 0.00 0.00 -999.0
20260506081900 0 192 3.5 3.5 0.00 0.00 0.00 -999.0
20260506081701 0 173 1.7 1.7 0.00 0.00 0.00 -999.0
20260506081600 0 200 3.5 3.5 0.00 0.00 0.00 -999.0
20260506081500 0 172 4.3 4.3 0.00 0.00 0.00 -999.0
20260506081100 0 176 2.6 2.6 0.00 0.00 0.00 -999.0
20260506081000 0 178 4.3 4.3 0.00 0.00 0.00 -999.0
20260506080900 0 173 3.5 3.5 0.00 0.00 0.00 -999.0
20260506080800 0 213 3.5 3.5 0.00 0.00 0.00 -999.0
20260506080700 0 202 3.5 3.5 0.00 0.00 0.00 -999.0
20260506080600 0 162 2.6 2.6 0.00 0.00 0.00 -999.0
20260506080500 0 188 6.1 6.1 0.00 0.00 0.00 -999.0
20260506080400 0 173 4.3 4.3 0.00 0.00 0.00 -999.0
20260506073500 0 214 2.6 2.6 0.00 0.00 0.00 -999.0
20260506073400 0 145 3.5 3.5 0.00 0.00 0.00 -999.0
20260506073300 0 185 1.7 1.7 0.00 0.00 0.00 -999.0
20260506073200 0 203 1.7 1.7 0.00 0.00 0.00 -999.0
20260506073001 0 168 4.3 4.3 0.00 0.00 0.00 -999.0
20260506072700 0 158 3.5 3.5 0.00 0.00 0.00 -999.0
20260506072600 0 191 3.5 3.5 0.00 0.00 0.00 -999.0
20260506072500 0 203 2.6 2.6 0.00 0.00 0.00 -999.0
20260506072401 0 198 2.6 2.6 0.00 0.00 0.00 -999.0
20260506072300 0 232 1.7 1.7 0.00 0.00 0.00 -999.0
20260506072200 0 215 3.5 3.5 0.00 0.00 0.00 -999.0
20260506072100 0 224 5.2 5.2 0.00 0.00 0.00 -999.0
20260506072000 0 190 2.6 2.6 0.00 0.00 0.00 -999.0
20260506071900 0 202 3.5 3.5 0.00 0.00 0.00 -999.0
20260506071800 0 196 2.6 2.6 0.00 0.00 0.00 -999.0
20260506071601 0 206 1.7 1.7 0.00 0.00 0.00 -999.0
20260506071400 0 232 1.7 1.7 0.00 0.00 0.00 -999.0
20260506071301 0 153 2.6 2.6 0.00 0.00 0.00 -999.0
20260506071200 0 198 1.7 1.7 0.00 0.00 0.00 -999.0
20260506071100 0 198 3.5 3.5 0.00 0.00 0.00 -999.0
20260506070800 0 181 6.1 6.1 0.00 0.00 0.00 -999.0
20260506070700 0 193 3.5 3.5 0.00 0.00 0.00 -999.0
20260506070600 0 174 2.6 2.6 0.00 0.00 0.00 -999.0
20260506070500 0 214 1.7 1.7 0.00 0.00 0.00 -999.0
20260506070400 0 195 3.5 3.5 0.00 0.00 0.00 -999.0
20260506070300 0 149 4.3 4.3 0.00 0.00 0.00 -999.0
20260506062300 0 198 2.6 2.6 0.00 0.00 0.00 -999.0
20260506062201 0 211 3.5 3.5 0.00 0.00 0.00 -999.0
20260506062100 0 184 2.6 2.6 0.00 0.00 0.00 -999.0
20260506061800 0 196 1.7 1.7 0.00 0.00 0.00 -999.0
20260506061701 0 184 3.5 3.5 0.00 0.00 0.00 -999.0
20260506061601 0 210 0.9 0.9 0.00 0.00 0.00 -999.0
20260506061500 0 142 1.7 1.7 0.00 0.00 0.00 -999.0
20260506061400 0 177 5.2 5.2 0.00 0.00 0.00 -999.0
20260506061200 0 185 4.3 4.3 0.00 0.00 0.00 -999.0
20260506061101 0 198 1.7 1.7 0.00 0.00 0.00 -999.0
20260506061000 0 175 3.5 3.5 0.00 0.00 0.00 -999.0
20260506060801 0 162 4.3 4.3 0.00 0.00 0.00 -999.0
20260506060600 0 191 3.5 3.5 0.00 0.00 0.00 -999.0
20260506060501 0 168 3.5 3.5 0.00 0.00 0.00 -999.0
20260506060301 0 217 2.6 2.6 0.00 0.00 0.00 -999.0
20260506051300 0 158 2.6 2.6 0.00 0.00 0.00 -999.0
20260506051201 0 222 4.3 4.3 0.00 0.00 0.00 -999.0
20260506051000 0 189 0.9 0.9 0.00 0.00 0.00 -999.0
20260506050900 0 193 2.6 2.6 0.00 0.00 0.00 -999.0
20260506050801 0 195 3.5 3.5 0.00 0.00 0.00 -999.0
20260506050700 0 188 2.6 2.6 0.00 0.00 0.00 -999.0
20260506050501 0 200 1.7 1.7 0.00 0.00 0.00 -999.0
20260506050400 0 217 1.7 1.7 0.00 0.00 0.00 -999.0
20260506050201 0 185 0.9 0.9 0.00 0.00 0.00 -999.0
20260506045101 0 213 0.9 0.9 0.00 0.00 0.00 -999.0
20260506045001 0 200 3.5 3.5 0.00 0.00 0.00 -999.0
20260506044901 0 162 0.9 0.9 0.00 0.00 0.00 -999.0
20260506044700 0 159 2.6 2.6 0.00 0.00 0.00 -999.0
20260506044601 0 205 1.7 1.7 0.00 0.00 0.00 -999.0
20260506044501 0 199 0.9 0.9 0.00 0.00 0.00 -999.0
20260506044400 0 215 0.9 0.9 0.00 0.00 0.00 -999.0
20260506044000 0 162 4.3 4.3 0.00 0.00 0.00 -999.0
20260506043900 0 202 1.7 1.7 0.00 0.00 0.00 -999.0
20260506043801 0 157 1.7 1.7 0.00 0.00 0.00 -999.0
20260506043701 0 185 2.6 2.6 0.00 0.00 0.00 -999.0
20260506043601 0 162 2.6 2.6 0.00 0.00 0.00 -999.0
20260506043501 0 174 2.6 2.6 0.00 0.00 0.00 -999.0
20260506043401 0 148 2.6 2.6 0.00 0.00 0.00 -999.0
20260506043201 0 188 1.7 1.7 0.00 0.00 0.00 -999.0
20260506043100 0 167 1.7 1.7 0.00 0.00 0.00 -999.0
20260506043001 0 195 3.5 3.5 0.00 0.00 0.00 -999.0
20260506042900 0 182 1.7 1.7 0.00 0.00 0.00 -999.0
20260506042801 0 217 1.7 1.7 0.00 0.00 0.00 -999.0
20260506042600 0 205 1.7 1.7 0.00 0.00 0.00 -999.0
20260506042401 0 202 1.7 1.7 0.00 0.00 0.00 -999.0
20260506042201 0 210 2.6 2.6 0.00 0.00 0.00 -999.0
20260506042100 0 181 1.7 1.7 0.00 0.00 0.00 -999.0
20260506042000 0 188 3.5 3.5 0.00 0.00 0.00 -999.0
20260506041900 0 169 2.6 2.6 0.00 0.00 0.00 -999.0
20260506041801 0 179 1.7 1.7 0.00 0.00 0.00 -999.0
20260506041701 0 162 2.6 2.6 0.00 0.00 0.00 -999.0
20260506041601 0 203 1.7 1.7 0.00 0.00 0.00 -999.0
20260506041501 0 196 0.9 0.9 0.00 0.00 0.00 -999.0
20260506041401 0 195 2.6 2.6 0.00 0.00 0.00 -999.0
20260506041301 0 189 0.9 0.9 0.00 0.00 0.00 -999.0
20260506041200 0 176 1.7 1.7 0.00 0.00 0.00 -999.0
20260506041100 0 181 1.7 1.7 0.00 0.00 0.00 -999.0
20260506041001 0 156 1.7 1.7 0.00 0.00 0.00 -999.0
20260506040901 0 162 1.7 1.7 0.00 0.00 0.00 -999.0
20260506040800 0 164 3.5 3.5 0.00 0.00 0.00 -999.0
20260506040701 0 148 3.5 3.5 0.00 0.00 0.00 -999.0
20260506040601 0 165 1.7 1.7 0.00 0.00 0.00 -999.0
20260506040500 0 145 2.6 2.6 0.00 0.00 0.00 -999.0
20260506040401 0 167 2.6 2.6 0.00 0.00 0.00 -999.0
20260506040300 0 160 1.7 1.7 0.00 0.00 0.00 -999.0
20260506040201 0 158 1.7 1.7 0.00 0.00 0.00 -999.0
20260506040100 0 170 2.6 2.6 0.00 0.00 0.00 -999.0
20260506040000 0 150 0.9 0.9 0.00 0.00 0.00 -999.0
20260506035901 0 159 0.9 0.9 0.00 0.00 0.00 -999.0
20260506035701 0 165 1.7 1.7 0.00 0.00 0.00 -999.0
20260506035500 0 165 0.9 0.9 0.00 0.00 0.00 -999.0
20260506035301 0 196 2.6 2.6 0.00 0.00 0.00 -999.0
20260506035101 0 167 2.6 2.6 0.00 0.00 0.00 -999.0
20260506035001 0 162 2.6 2.6 0.00 0.00 0.00 -999.0
20260506034901 0 163 0.9 0.9 0.00 0.00 0.00 -999.0
20260506034701 0 155 1.7 1.7 0.00 0.00 0.00 -999.0
20260506034600 0 152 1.7 1.7 0.00 0.00 0.00 -999.0
20260506034500 0 171 1.7 1.7 0.00 0.00 0.00 -999.0
20260506034400 0 160 2.6 2.6 0.00 0.00 0.00 -999.0
20260506034300 0 163 0.9 0.9 0.00 0.00 0.00 -999.0
20260506034101 0 157 2.6 2.6 0.00 0.00 0.00 -999.0
20260506034001 0 155 1.7 1.7 0.00 0.00 0.00 -999.0
20260506033901 0 160 2.6 2.6 0.00 0.00 0.00 -999.0
20260506033801 0 169 1.7 1.7 0.00 0.00 0.00 -999.0
20260506033701 0 156 1.7 1.7 0.00 0.00 0.00 -999.0
20260506033200 0 159 1.7 1.7 0.00 0.00 0.00 -999.0
20260506033100 0 158 2.6 2.6 0.00 0.00 0.00 -999.0
20260506033001 0 153 1.7 1.7 0.00 0.00 0.00 -999.0
20260506032900 0 172 1.7 1.7 0.00 0.00 0.00 -999.0
20260506032801 0 167 2.6 2.6 0.00 0.00 0.00 -999.0
20260506032701 0 162 1.7 1.7 0.00 0.00 0.00 -999.0
20260506032601 0 155 0.9 0.9 0.00 0.00 0.00 -999.0
20260506032500 0 169 1.7 1.7 0.00 0.00 0.00 -999.0
20260506032300 0 157 1.7 1.7 0.00 0.00 0.00 -999.0
20260506032201 0 158 1.7 1.7 0.00 0.00 0.00 -999.0
20260506032000 0 164 0.9 0.9 0.00 0.00 0.00 -999.0
20260506031901 0 162 1.7 1.7 0.00 0.00 0.00 -999.0
20260506031801 0 160 0.9 0.9 0.00 0.00 0.00 -999.0
20260506031700 0 165 0.9 0.9 0.00 0.00 0.00 -999.0
20260506031601 0 165 0.0 0.0 0.00 0.00 0.00 -999.0
20260506031500 0 163 0.9 0.9 0.00 0.00 0.00 -999.0
20260506031200 0 157 0.0 0.0 0.00 0.00 0.00 -999.0
20260506031000 0 162 0.0 0.0 0.00 0.00 0.00 -999.0
20260506030900 0 162 0.0 0.0 0.00 0.00 0.00 -999.0
20260506030801 0 190 0.9 0.9 0.00 0.00 0.00 -999.0
20260506030601 0 162 0.9 0.9 0.00 0.00 0.00 -999.0
20260506030501 0 172 1.7 1.7 0.00 0.00 0.00 -999.0
20260506030400 0 163 1.7 1.7 0.00 0.00 0.00 -999.0
20260506030300 0 163 1.7 1.7 0.00 0.00 0.00 -999.0
20260506030201 0 158 1.7 1.7 0.00 0.00 0.00 -999.0
20260506030001 0 166 1.7 1.7 0.00 0.00 0.00 -999.0
20260506025900 0 163 1.7 1.7 0.00 0.00 0.00 -999.0
20260506025700 0 148 1.7 1.7 0.00 0.00 0.00 -999.0
20260506025601 0 154 0.9 0.9 0.00 0.00 0.00 -999.0
20260506025501 0 149 2.6 2.6 0.00 0.00 0.00 -999.0
20260506025301 0 170 1.7 1.7 0.00 0.00 0.00 -999.0
20260506025200 0 166 0.9 0.9 0.00 0.00 0.00 -999.0
20260506025101 0 155 0.9 0.9 0.00 0.00 0.00 -999.0
20260506025001 0 160 1.7 1.7 0.00 0.00 0.00 -999.0
20260506024901 0 170 0.9 0.9 0.00 0.00 0.00 -999.0
20260506024801 0 160 1.7 1.7 0.00 0.00 0.00 -999.0
20260506024600 0 167 1.7 1.7 0.00 0.00 0.00 -999.0
20260506024500 0 172 0.9 0.9 0.00 0.00 0.00 -999.0
20260506024401 0 140 0.9 0.9 0.00 0.00 0.00 -999.0
20260506024001 0 164 0.9 0.9 0.00 0.00 0.00 -999.0
20260506023901 0 172 0.9 0.9 0.00 0.00 0.00 -999.0
20260506023800 0 159 0.9 0.9 0.00 0.00 0.00 -999.0
20260506023700 0 163 0.9 0.9 0.00 0.00 0.00 -999.0
20260506023600 0 181 1.7 1.7 0.00 0.00 0.00 -999.0
20260506023501 0 163 0.9 0.9 0.00 0.00 0.00 -999.0
20260506023401 0 152 2.6 2.6 0.00 0.00 0.00 -999.0
20260506023300 0 165 2.6 2.6 0.00 0.00 0.00 -999.0
20260506023201 0 155 0.9 0.9 0.00 0.00 0.00 -999.0
20260506023100 0 150 1.7 1.7 0.00 0.00 0.00 -999.0
20260506023001 0 165 1.7 1.7 0.00 0.00 0.00 -999.0
20260506022900 0 160 2.6 2.6 0.00 0.00 0.00 -999.0
20260506022701 0 155 1.7 1.7 0.00 0.00 0.00 -999.0
20260506022600 0 156 1.7 1.7 0.00 0.00 0.00 -999.0
20260506022500 0 164 1.7 1.7 0.00 0.00 0.00 -999.0
20260506022400 0 150 1.7 1.7 0.00 0.00 0.00 -999.0
20260506022301 0 162 0.9 0.9 0.00 0.00 0.00 -999.0
20260506022201 0 162 1.7 1.7 0.00 0.00 0.00 -999.0
20260506022001 0 162 0.9 0.9 0.00 0.00 0.00 -999.0
20260506021700 0 191 0.9 0.9 0.00 0.00 0.00 -999.0
20260506021600 0 160 1.7 1.7 0.00 0.00 0.00 -999.0
20260506021501 0 192 0.0 0.0 0.00 0.00 0.00 -999.0
20260506021401 0 191 0.9 0.9 0.00 0.00 0.00 -999.0
20260506021301 0 196 0.9 0.9 0.00 0.00 0.00 -999.0
20260506021201 0 189 0.9 0.9 0.00 0.00 0.00 -999.0
20260506021100 0 191 0.0 0.0 0.00 0.00 0.00 -999.0
20260506021001 0 205 0.0 0.0 0.00 0.00 0.00 -999.0
20260506020900 0 205 0.9 0.9 0.00 0.00 0.00 -999.0
20260506020801 0 213 0.9 0.9 0.00 0.00 0.00 -999.0
20260506020701 0 221 0.9 0.9 0.00 0.00 0.00 -999.0
20260506020601 0 207 1.7 1.7 0.00 0.00 0.00 -999.0
20260506020501 0 138 0.9 0.9 0.00 0.00 0.00 -999.0
20260506020401 0 179 1.7 1.7 0.00 0.00 0.00 -999.0
20260506020300 0 204 0.9 0.9 0.00 0.00 0.00 -999.0
20260506020200 0 168 0.9 0.9 0.00 0.00 0.00 -999.0
20260506020001 0 188 0.9 0.9 0.00 0.00 0.00 -999.0
20260506015901 0 176 2.6 2.6 0.00 0.00 0.00 -999.0
20260506015801 0 164 1.7 1.7 0.00 0.00 0.00 -999.0
20260506015701 0 169 2.6 2.6 0.00 0.00 0.00 -999.0
20260506015601 0 200 0.0 0.0 0.00 0.00 0.00 -999.0
20260506015401 0 153 2.6 2.6 0.00 0.00 0.00 -999.0
20260506015200 0 150 1.7 1.7 0.00 0.00 0.00 -999.0
20260506015100 0 163 1.7 1.7 0.00 0.00 0.00 -999.0
20260506015000 0 165 1.7 1.7 0.00 0.00 0.00 -999.0
20260506014800 0 148 2.6 2.6 0.00 0.00 0.00 -999.0
20260506014701 0 192 0.9 0.9 0.00 0.00 0.00 -999.0
20260506014501 0 164 0.9 0.9 0.00 0.00 0.00 -999.0
20260506014301 0 181 0.9 0.9 0.00 0.00 0.00 -999.0
20260506014200 0 157 2.6 2.6 0.00 0.00 0.00 -999.0
20260506014100 0 169 0.9 0.9 0.00 0.00 0.00 -999.0
20260506014001 0 168 0.9 0.9 0.00 0.00 0.00 -999.0
20260506013900 0 195 1.7 1.7 0.00 0.00 0.00 -999.0
20260506013600 0 155 1.7 1.7 0.00 0.00 0.00 -999.0
20260506013500 0 200 1.7 1.7 0.00 0.00 0.00 -999.0
20260506013400 0 204 1.7 1.7 0.00 0.00 0.00 -999.0
20260506013300 0 159 1.7 1.7 0.00 0.00 0.00 -999.0
20260506013200 0 163 2.6 2.6 0.00 0.00 0.00 -999.0
20260506013100 0 181 1.7 1.7 0.00 0.00 0.00 -999.0
20260506013001 0 152 3.5 3.5 0.00 0.00 0.00 -999.0
20260506012901 0 188 0.9 0.9 0.00 0.00 0.00 -999.0
20260506012800 0 167 3.5 3.5 0.00 0.00 0.00 -999.0
20260506012700 0 160 3.5 3.5 0.00 0.00 0.00 -999.0
20260506012600 0 187 2.6 2.6 0.00 0.00 0.00 -999.0
20260506012500 0 169 0.9 0.9 0.00 0.00 0.00 -999.0
20260506012400 0 192 1.7 1.7 0.00 0.00 0.00 -999.0
20260506012300 0 143 0.9 0.9 0.00 0.00 0.00 -999.0
20260506012201 0 191 0.0 0.0 0.00 0.00 0.00 -999.0
20260506012101 0 184 0.9 0.9 0.00 0.00 0.00 -999.0
20260506012001 0 202 1.7 1.7 0.00 0.00 0.00 -999.0
20260506011901 0 206 0.9 0.9 0.00 0.00 0.00 -999.0
20260506011800 0 217 2.6 2.6 0.00 0.00 0.00 -999.0
20260506011700 0 219 2.6 2.6 0.00 0.00 0.00 -999.0
20260506011601 0 167 0.0 0.0 0.00 0.00 0.00 -999.0
20260506011400 0 236 0.9 0.9 0.00 0.00 0.00 -999.0
20260506011301 0 198 0.0 0.0 0.00 0.00 0.00 -999.0
20260506011200 0 204 1.7 1.7 0.00 0.00 0.00 -999.0
20260506011000 0 210 0.9 0.9 0.00 0.00 0.00 -999.0
20260506010501 0 155 3.5 3.5 0.00 0.00 0.00 -999.0
20260506010400 0 152 5.2 5.2 0.00 0.00 0.00 -999.0
20260506010301 0 174 2.6 2.6 0.00 0.00 0.00 -999.0
20260506010200 0 160 3.5 3.5 0.00 0.00 0.00 -999.0
20260506005901 0 151 2.6 2.6 0.00 0.00 0.00 -999.0
20260506005801 0 141 6.1 6.1 0.00 0.00 0.00 -999.0
20260506005601 0 143 4.3 4.3 0.00 0.00 0.00 -999.0
20260506005501 0 151 6.1 6.1 0.00 0.00 0.00 -999.0
20260506005401 0 164 7.0 7.0 0.00 0.00 0.00 -999.0
20260506005300 0 150 3.5 3.5 0.00 0.00 0.00 -999.0
20260506005201 0 200 2.6 2.6 0.00 0.00 0.00 -999.0
20260506005101 0 193 7.8 7.8 0.00 0.00 0.00 -999.0
20260506005000 0 172 7.8 7.8 0.00 0.00 0.00 -999.0
20260506004900 0 153 7.8 7.8 0.00 0.00 0.00 -999.0
20260506004801 0 202 2.6 2.6 0.00 0.00 0.00 -999.0
20260506004701 0 153 5.2 5.2 0.00 0.00 0.00 -999.0
20260506004600 0 131 4.3 4.3 0.00 0.00 0.00 -999.0
20260506004500 0 161 7.8 7.8 0.00 0.00 0.00 -999.0
20260506004400 0 203 1.7 1.7 0.00 0.00 0.00 -999.0
20260506004201 0 193 0.9 0.9 0.00 0.00 0.00 -999.0
20260506004100 0 140 3.5 3.5 0.00 0.00 0.00 -999.0
20260506003900 0 147 5.2 5.2 0.00 0.00 0.00 -999.0
20260506003801 0 160 4.3 4.3 0.00 0.00 0.00 -999.0
20260506003700 0 164 1.7 1.7 0.00 0.00 0.00 -999.0
20260506003600 0 141 4.3 4.3 0.00 0.00 0.00 -999.0
20260506003500 0 165 3.5 3.5 0.00 0.00 0.00 -999.0
20260506003300 0 170 6.1 6.1 0.00 0.00 0.00 -999.0
20260506003200 0 168 7.0 7.0 0.00 0.00 0.00 -999.0
20260506003101 0 156 6.1 6.1 0.00 0.00 0.00 -999.0
20260506003001 0 155 8.7 8.7 0.00 0.00 0.00 -999.0
20260506002901 0 142 7.0 7.0 0.00 0.00 0.00 -999.0
20260506002800 0 162 4.3 4.3 0.00 0.00 0.00 -999.0
20260506002701 0 157 7.0 7.0 0.00 0.00 0.00 -999.0
20260506002600 0 170 6.1 6.1 0.00 0.00 0.00 -999.0
20260506002501 0 162 5.2 5.2 0.00 0.00 0.00 -999.0
20260506002400 0 165 4.3 4.3 0.00 0.00 0.00 -999.0
20260506002101 0 142 4.3 4.3 0.00 0.00 0.00 -999.0
20260506001800 0 155 7.0 7.0 0.00 0.00 0.00 -999.0
20260506001701 0 153 7.0 7.0 0.00 0.00 0.00 -999.0
20260506001601 0 132 6.1 6.1 0.00 0.00 0.00 -999.0
20260506001500 0 183 4.3 4.3 0.00 0.00 0.00 -999.0
20260506001401 0 125 3.5 3.5 0.00 0.00 0.00 -999.0
20260506001300 0 153 5.2 5.2 0.00 0.00 0.00 -999.0
20260506001200 0 155 7.8 7.8 0.00 0.00 0.00 -999.0
20260506001100 0 155 7.0 7.0 0.00 0.00 0.00 -999.0
20260506001001 0 144 9.6 9.6 0.00 0.00 0.00 -999.0
20260506000900 0 138 10.4 10.4 0.00 0.00 0.00 -999.0
20260506000800 0 148 7.8 7.8 0.00 0.00 0.00 -999.0
20260506000701 0 151 7.8 7.8 0.00 0.00 0.00 -999.0
20260506000601 0 153 9.6 9.6 0.00 0.00 0.00 -999.0
20260506000401 0 152 9.6 9.6 0.00 0.00 0.00 -999.0
20260506000302 0 131 7.8 7.8 0.00 0.00 0.00 -999.0
20260506000200 0 141 9.6 9.6 0.00 0.00 0.00 -999.0
20260506000100 0 146 8.7 8.7 0.00 0.00 0.00 -999.0
20260506000001 0 159 9.6 9.6 0.00 0.00 0.00 -999.0
20260505235901 0 136 10.4 10.4 0.00 0.00 0.00 -999.0
20260505235700 0 150 7.8 7.8 0.00 0.00 0.00 -999.0
20260505235600 0 165 6.1 6.1 0.00 0.00 0.00 -999.0
20260505235400 0 137 8.7 8.7 0.00 0.00 0.00 -999.0
20260505235300 0 147 7.0 7.0 0.00 0.00 0.00 -999.0
20260505235200 0 145 7.0 7.0 0.00 0.00 0.00 -999.0
20260505235000 0 146 11.3 11.3 0.00 0.00 0.00 -999.0
20260505234900 0 150 7.0 7.0 0.00 0.00 0.00 -999.0
20260505234800 0 154 10.4 10.4 0.00 0.00 0.00 -999.0
20260505234601 0 139 8.7 8.7 0.00 0.00 0.00 -999.0
20260505234500 0 152 7.0 7.0 0.00 0.00 0.00 -999.0
20260505234400 0 158 8.7 8.7 0.00 0.00 0.00 -999.0
20260505234300 0 133 9.6 9.6 0.00 0.00 0.00 -999.0
20260505234200 0 118 7.8 7.8 0.00 0.00 0.00 -999.0
20260505233900 0 138 9.6 9.6 0.00 0.00 0.00 -999.0
20260505233800 0 121 10.4 10.4 0.00 0.00 0.00 -999.0
20260505233700 0 139 12.2 12.2 0.00 0.00 0.00 -999.0
20260505233600 0 143 8.7 8.7 0.00 0.00 0.00 -999.0
20260505233501 0 145 10.4 10.4 0.00 0.00 0.00 -999.0
20260505233401 0 134 10.4 10.4 0.00 0.00 0.00 -999.0
20260505233300 0 134 9.6 9.6 0.00 0.00 0.00 -999.0
20260505233200 0 131 8.7 8.7 0.00 0.00 0.00 -999.0
20260505232900 0 141 9.6 9.6 0.00 0.00 0.00 -999.0
20260505232801 0 113 9.6 9.6 0.00 0.00 0.00 -999.0
20260505232700 0 160 7.8 7.8 0.00 0.00 0.00 -999.0
20260505232500 0 118 8.7 8.7 0.00 0.00 0.00 -999.0
20260505232400 0 140 8.7 8.7 0.00 0.00 0.00 -999.0
20260505232100 0 145 7.8 7.8 0.00 0.00 0.00 -999.0
20260505232000 0 130 10.4 10.4 0.00 0.00 0.00 -999.0
20260505231800 0 134 7.8 7.8 0.00 0.00 0.00 -999.0
20260505231700 0 131 10.4 10.4 0.00 0.00 0.00 -999.0
20260505231600 0 152 8.7 8.7 0.00 0.00 0.00 -999.0
20260505231500 0 131 9.6 9.6 0.00 0.00 0.00 -999.0
20260505231401 0 132 9.6 9.6 0.00 0.00 0.00 -999.0
20260505231300 0 141 9.6 9.6 0.00 0.00 0.00 -999.0
20260505231200 0 149 11.3 11.3 0.00 0.00 0.00 -999.0
20260505231100 0 141 12.2 12.2 0.00 0.00 0.00 -999.0
20260505231001 0 144 9.6 9.6 0.00 0.00 0.00 -999.0
20260505230901 0 150 11.3 11.3 0.00 0.00 0.00 -999.0
20260505230800 0 123 9.6 9.6 0.00 0.00 0.00 -999.0
20260505230700 0 137 11.3 11.3 0.00 0.00 0.00 -999.0
20260505230500 0 154 12.2 12.2 0.00 0.00 0.00 -999.0
20260505230400 0 137 12.2 12.2 0.00 0.00 0.00 -999.0
20260505230301 0 138 9.6 9.6 0.00 0.00 0.00 -999.0
20260505230200 0 144 8.7 8.7 0.00 0.00 0.00 -999.0
20260505230100 0 117 10.4 10.4 0.00 0.00 0.00 -999.0
20260505230001 0 133 14.8 14.8 0.00 0.00 0.00 -999.0
20260505225900 0 140 11.3 11.3 0.00 0.00 0.00 -999.0
20260505225801 0 138 11.3 11.3 0.00 0.00 0.00 -999.0
20260505225600 0 137 9.6 9.6 0.00 0.00 0.00 -999.0
20260505225500 0 118 10.4 10.4 0.00 0.00 0.00 -999.0
20260505225401 0 137 7.0 7.0 0.00 0.00 0.00 -999.0
20260505225300 0 141 9.6 9.6 0.00 0.00 0.00 -999.0
20260505225200 0 116 12.2 12.2 0.00 0.00 0.00 -999.0
20260505225100 0 129 7.0 7.0 0.00 0.00 0.00 -999.0
20260505225001 0 130 10.4 10.4 0.00 0.00 0.00 -999.0
20260505224901 0 145 11.3 11.3 0.00 0.00 0.00 -999.0
20260505224700 0 124 12.2 12.2 0.00 0.00 0.00 -999.0
20260505224600 0 120 11.3 11.3 0.00 0.00 0.00 -999.0
20260505224500 0 135 8.7 8.7 0.00 0.00 0.00 -999.0
20260505224401 0 127 13.9 13.9 0.00 0.00 0.00 -999.0
20260505224201 0 144 11.3 11.3 0.00 0.00 0.00 -999.0
20260505224100 0 142 11.3 11.3 0.00 0.00 0.00 -999.0
20260505223900 0 134 12.2 12.2 0.00 0.00 0.00 -999.0
20260505223800 0 169 12.2 12.2 0.00 0.00 0.00 -999.0
20260505223700 0 124 13.0 13.0 0.00 0.00 0.00 -999.0
20260505223600 0 130 12.2 12.2 0.00 0.00 0.00 -999.0
20260505223500 0 138 10.4 10.4 0.00 0.00 0.00 -999.0
20260505223400 0 169 8.7 8.7 0.00 0.00 0.00 -999.0
20260505223301 0 136 11.3 11.3 0.00 0.00 0.00 -999.0
20260505223200 0 145 11.3 11.3 0.00 0.00 0.00 -999.0
20260505223000 0 138 11.3 11.3 0.00 0.00 0.00 -999.0
20260505222801 0 147 10.4 10.4 0.00 0.00 0.00 -999.0
20260505222703 0 127 13.0 13.0 0.00 0.00 0.00 -999.0
20260505222601 0 123 11.3 11.3 0.00 0.00 0.00 -999.0
20260505222501 0 132 12.2 12.2 0.00 0.00 0.00 -999.0
20260505222401 0 141 11.3 11.3 0.00 0.00 0.00 -999.0
20260505222301 0 150 9.6 9.6 0.00 0.00 0.00 -999.0
20260505222100 0 146 13.0 13.0 0.00 0.00 0.00 -999.0